Погода в Цельтвеге

Австрия     47°11′22″N   14°45′10″E
темп.,
°C
ветер,
м/с
пор.,
м/с
влажн.,
%
обл.,
%
осадки,
мм/ч
давл.,
гПа
погр.,
м
17 мая, вт
вт1723:00+10зсз2295100 0.5 102156
02:00+10зсз2292100 0.5 102043
05:00+9сз2294100 0.0 102039
08:00+12зсз2386100 0.0 1020168
11:00+16сз3854100 0.1 10191745
14:00+15сз246581 1.0 1019883
17:00+18ссз3743100 0.0 10172029
20:00+12сз237880 0.0 101953
18 мая, ср
ср1823:00+9сз229095 0.0 102223
02:00+9сз229315 0.1 102221
05:00+8ссз119662 0.1 102417
08:00+12св11797 0.1 1025392
11:00+15всв226654 0.6 10251092
14:00+15вюв337435 1.9 1025948
17:00+15вюв226786 0.9 10251089
20:00+11вюв237976 1.0 1027109
19 мая, чт
чт1923:00+7юв118144 0.0 102938
02:00+5зюз01905 0.0 103011
05:00+4з11945 0.0 102910
08:00+11юз12715 0.0 1027350
11:00+18ю12524 0.0 1025973
14:00+22ю22415 0.0 10231641
17:00+21ююв324456 0.0 10221317
20:00+14ю117695 0.0 102411
20 мая, пт
пт2023:00+11з2280100 0.0 102624
02:00+10з227996 0.1 102635
05:00+11з228484 0.1 102525
08:00+16зюз127177 0.2 1025187
11:00+21всв016320 1.1 1024692
14:00+24ююв1243100 1.5 10211763
17:00+20ююв126350 0.2 1021327
20:00+17ююз117985 0.3 102013
21 мая, сб
сб2123:00+13з3391100 0.1 102049
02:00+12зюз3495100 1.6 102289
05:00+12з2391100 0.0 102047
08:00+14сз2287100 0.0 101967
11:00+16сз248094 1.1 1021373
14:00+22ссз364324 1.1 10182091
17:00+21ссз36438 0.0 10181528
20:00+14с22747 0.0 102027